| time (UTC) | temp F | wind direction | speed knots | gust knots | rain 1hr in | rain 24hr in | rain mn in | humidity % | barometer mb |
| 20260506182935 | 63 | 203 | 0.9 | 1.7 | 0.00 | 0.07 | 0.07 | 90 | 1008.2 |
| 20260506182432 | 63 | 260 | 1.7 | 4.3 | 0.00 | 0.07 | 0.07 | 91 | 1008.2 |
| 20260506181929 | 64 | 225 | 1.7 | 1.7 | 0.00 | 0.07 | 0.07 | 89 | 1008.5 |
| 20260506181427 | 64 | 241 | 0.9 | 1.7 | 0.00 | 0.07 | 0.07 | 89 | 1008.2 |
| 20260506180924 | 64 | 178 | 2.6 | 4.3 | 0.00 | 0.07 | 0.07 | 89 | 1008.6 |
| 20260506180420 | 64 | 205 | 0.9 | 1.7 | 0.00 | 0.07 | 0.07 | 89 | 1008.4 |
| 20260506175917 | 64 | 232 | 0.9 | 0.9 | 0.00 | 0.07 | 0.07 | 89 | 1008.6 |
| 20260506175414 | 64 | 224 | 3.5 | 4.3 | 0.00 | 0.07 | 0.07 | 88 | 1008.7 |
| 20260506174910 | 64 | 236 | 1.7 | 1.7 | 0.00 | 0.07 | 0.07 | 89 | 1008.7 |
| 20260506174408 | 64 | 222 | 0.0 | 0.9 | 0.00 | 0.07 | 0.07 | 88 | 1009.0 |
| 20260506173905 | 64 | 209 | 2.6 | 2.6 | 0.00 | 0.07 | 0.07 | 88 | 1008.8 |
| 20260506173402 | 64 | 208 | 2.6 | 4.3 | 0.00 | 0.07 | 0.07 | 88 | 1008.7 |
| 20260506172859 | 64 | 226 | 2.6 | 4.3 | 0.00 | 0.07 | 0.07 | 88 | 1008.7 |
| 20260506172356 | 64 | 232 | 0.9 | 1.7 | 0.00 | 0.07 | 0.07 | 89 | 1008.9 |
| 20260506171853 | 65 | 253 | 1.7 | 2.6 | 0.00 | 0.07 | 0.07 | 89 | 1008.9 |
| 20260506171350 | 64 | 203 | 0.9 | 0.9 | 0.07 | 0.07 | 0.07 | 89 | 1008.6 |
| 20260506170848 | 64 | 203 | 0.0 | 0.9 | 0.07 | 0.07 | 0.07 | 90 | 1008.8 |
| 20260506170344 | 64 | 224 | 1.7 | 1.7 | 0.05 | 0.06 | 0.06 | 90 | 1008.6 |
| 20260506165843 | 63 | 212 | 0.9 | 0.9 | 0.05 | 0.06 | 0.06 | 90 | 1008.9 |
| 20260506165341 | 63 | 225 | 0.0 | 0.9 | 0.00 | 0.05 | 0.05 | 90 | 1008.6 |
| 20260506164837 | 63 | 214 | 0.0 | 0.9 | 0.00 | 0.05 | 0.05 | 90 | 1008.8 |
| 20260506164333 | 64 | 221 | 0.9 | 0.9 | 0.00 | 0.05 | 0.05 | 89 | 1009.2 |
| 20260506163831 | 64 | 225 | 0.9 | 1.7 | 0.00 | 0.05 | 0.05 | 89 | 1009.2 |
| 20260506163326 | 64 | 216 | 0.9 | 1.7 | 0.07 | 0.05 | 0.05 | 89 | 1009.4 |
| 20260506162821 | 63 | 238 | 1.7 | 1.7 | 0.07 | 0.05 | 0.05 | 89 | 1009.7 |
| 20260506162320 | 63 | 211 | 1.7 | 1.7 | 0.05 | 0.04 | 0.04 | 88 | 1009.6 |
| 20260506161817 | 64 | 244 | 3.5 | 5.2 | 0.12 | 0.04 | 0.04 | 88 | 1010.1 |
| 20260506161314 | 64 | 188 | 4.3 | 7.0 | 0.07 | 0.03 | 0.03 | 87 | 1010.0 |
| 20260506160812 | 64 | 229 | 0.9 | 0.9 | 0.05 | 0.02 | 0.02 | 86 | 1009.8 |
| 20260506160308 | 64 | 209 | 0.9 | 1.7 | 0.05 | 0.02 | 0.02 | 85 | 1010.1 |
| 20260506155807 | 64 | 199 | 0.9 | 1.7 | 0.00 | 0.01 | 0.01 | 85 | 1010.3 |
| 20260506155305 | 65 | 229 | 1.7 | 2.6 | 0.07 | 0.01 | 0.01 | 83 | 1010.2 |
| 20260506153415 | 66 | 225 | 0.9 | 2.6 | 0.00 | 0.00 | 0.00 | 80 | 1010.0 |
| 20260506152913 | 67 | 199 | 2.6 | 4.3 | 0.00 | 0.00 | 0.00 | 79 | 1009.9 |
| 20260506152410 | 67 | 191 | 1.7 | 1.7 | 0.00 | 0.00 | 0.00 | 78 | 1010.0 |
| 20260506151909 | 67 | 229 | 0.0 | 0.0 | 0.00 | 0.00 | 0.00 | 77 | 1010.0 |
| 20260506151405 | 67 | 250 | 1.7 | 5.2 | 0.00 | 0.00 | 0.00 | 76 | 1009.8 |
| 20260506150903 | 68 | 246 | 3.5 | 4.3 | 0.00 | 0.00 | 0.00 | 74 | 1009.8 |
| 20260506150358 | 68 | 254 | 2.6 | 2.6 | 0.00 | 0.00 | 0.00 | 73 | 1009.8 |
| 20260506145855 | 68 | 240 | 4.3 | 6.1 | 0.00 | 0.00 | 0.00 | 73 | 1010.1 |
| 20260506145351 | 68 | 246 | 6.1 | 7.8 | 0.00 | 0.00 | 0.00 | 72 | 1010.2 |
| 20260506144849 | 68 | 260 | 5.2 | 7.0 | 0.00 | 0.00 | 0.00 | 71 | 1010.3 |
| 20260506144345 | 69 | 186 | 2.6 | 2.6 | 0.00 | 0.00 | 0.00 | 70 | 1010.2 |
| 20260506143844 | 69 | 239 | 6.1 | 7.0 | 0.00 | 0.00 | 0.00 | 70 | 1010.0 |
| 20260506143341 | 69 | 248 | 0.9 | 1.7 | 0.00 | 0.00 | 0.00 | 70 | 1010.0 |
| 20260506142839 | 69 | 262 | 4.3 | 6.1 | 0.00 | 0.00 | 0.00 | 70 | 1009.9 |
| 20260506142337 | 69 | 226 | 0.0 | 0.0 | 0.00 | 0.00 | 0.00 | 70 | 1010.3 |
| 20260506141835 | 69 | 248 | 0.9 | 1.7 | 0.00 | 0.00 | 0.00 | 70 | 1009.9 |
| 20260506141333 | 69 | 221 | 1.7 | 1.7 | 0.00 | 0.00 | 0.00 | 70 | 1009.9 |
| 20260506140830 | 68 | 203 | 4.3 | 6.1 | 0.00 | 0.00 | 0.00 | 71 | 1009.9 |
| 20260506140327 | 68 | 259 | 3.5 | 4.3 | 0.00 | 0.00 | 0.00 | 71 | 1010.0 |
| 20260506135824 | 68 | 197 | 2.6 | 4.3 | 0.00 | 0.00 | 0.00 | 71 | 1010.0 |
| 20260506135320 | 68 | 254 | 5.2 | 6.1 | 0.00 | 0.00 | 0.00 | 71 | 1010.0 |
| 20260506134817 | 68 | 217 | 5.2 | 7.0 | 0.00 | 0.00 | 0.00 | 71 | 1010.0 |
| 20260506134313 | 68 | 188 | 2.6 | 4.3 | 0.00 | 0.00 | 0.00 | 71 | 1010.0 |
| 20260506133811 | 68 | 129 | 4.3 | 6.1 | 0.00 | 0.00 | 0.00 | 71 | 1010.2 |
| 20260506133307 | 68 | 195 | 4.3 | 7.8 | 0.00 | 0.00 | 0.00 | 71 | 1010.3 |
| 20260506132804 | 68 | 170 | 2.6 | 2.6 | 0.00 | 0.00 | 0.00 | 71 | 1010.1 |
| 20260506132301 | 68 | 244 | 5.2 | 7.8 | 0.00 | 0.00 | 0.00 | 71 | 1010.2 |
| 20260506131759 | 68 | 207 | 2.6 | 2.6 | 0.00 | 0.00 | 0.00 | 72 | 1010.5 |
| 20260506131255 | 68 | 242 | 5.2 | 7.0 | 0.00 | 0.00 | 0.00 | 71 | 1010.2 |
| 20260506130752 | 68 | 143 | 3.5 | 4.3 | 0.00 | 0.00 | 0.00 | 71 | 1010.2 |
| 20260506130249 | 67 | 265 | 0.9 | 1.7 | 0.00 | 0.00 | 0.00 | 72 | 1010.4 |
| 20260506125747 | 67 | 225 | 2.6 | 4.3 | 0.00 | 0.00 | 0.00 | 73 | 1010.4 |
| 20260506125245 | 67 | 175 | 4.3 | 8.7 | 0.00 | 0.00 | 0.00 | 72 | 1010.1 |
| 20260506124743 | 67 | 234 | 0.0 | 0.9 | 0.00 | 0.00 | 0.00 | 73 | 1009.9 |
| 20260506124240 | 67 | 217 | 4.3 | 6.1 | 0.00 | 0.00 | 0.00 | 73 | 1010.0 |
| 20260506123737 | 67 | 280 | 4.3 | 5.2 | 0.00 | 0.00 | 0.00 | 73 | 1010.0 |
| 20260506123236 | 67 | 192 | 3.5 | 4.3 | 0.00 | 0.00 | 0.00 | 73 | 1009.7 |
| 20260506122732 | 67 | 235 | 2.6 | 5.2 | 0.00 | 0.00 | 0.00 | 73 | 1010.0 |
| 20260506122230 | 67 | 196 | 1.7 | 1.7 | 0.00 | 0.00 | 0.00 | 74 | 1010.0 |
| 20260506121728 | 66 | 249 | 5.2 | 7.0 | 0.00 | 0.00 | 0.00 | 74 | 1010.0 |
| 20260506121224 | 66 | 190 | 4.3 | 5.2 | 0.00 | 0.00 | 0.00 | 74 | 1010.2 |
| 20260506120722 | 66 | 181 | 3.5 | 5.2 | 0.00 | 0.00 | 0.00 | 75 | 1010.1 |
| 20260506120219 | 66 | 197 | 0.9 | 1.7 | 0.00 | 0.00 | 0.00 | 76 | 1010.1 |
| 20260506115717 | 66 | 244 | 0.0 | 0.0 | 0.00 | 0.00 | 0.00 | 75 | 1010.2 |
| 20260506115215 | 66 | 236 | 2.6 | 5.2 | 0.00 | 0.00 | 0.00 | 75 | 1010.3 |
| 20260506114712 | 66 | 221 | 3.5 | 4.3 | 0.00 | 0.00 | 0.00 | 75 | 1010.4 |
| 20260506114210 | 66 | 201 | 0.0 | 0.9 | 0.00 | 0.00 | 0.00 | 75 | 1010.5 |
| 20260506113708 | 66 | 190 | 2.6 | 4.3 | 0.00 | 0.00 | 0.00 | 75 | 1010.4 |
| 20260506113205 | 66 | 150 | 3.5 | 6.1 | 0.00 | 0.00 | 0.00 | 75 | 1010.5 |
| 20260506112701 | 66 | 203 | 4.3 | 7.8 | 0.00 | 0.00 | 0.00 | 75 | 1010.3 |
| 20260506112159 | 66 | 222 | 0.0 | 0.0 | 0.00 | 0.00 | 0.00 | 76 | 1010.3 |
| 20260506111656 | 66 | 160 | 2.6 | 5.2 | 0.00 | 0.00 | 0.00 | 76 | 1010.4 |
| 20260506111154 | 66 | 288 | 4.3 | 6.1 | 0.00 | 0.00 | 0.00 | 76 | 1010.3 |
| 20260506110651 | 65 | 201 | 2.6 | 2.6 | 0.00 | 0.00 | 0.00 | 76 | 1010.1 |
| 20260506110149 | 65 | 244 | 1.7 | 2.6 | 0.00 | 0.00 | 0.00 | 77 | 1010.1 |
| 20260506105645 | 65 | 220 | 2.6 | 2.6 | 0.00 | 0.00 | 0.00 | 77 | 1010.2 |
| 20260506105142 | 65 | 233 | 0.0 | 0.0 | 0.00 | 0.00 | 0.00 | 78 | 1010.0 |
| 20260506104640 | 64 | 207 | 0.0 | 0.9 | 0.00 | 0.00 | 0.00 | 79 | 1010.3 |
| 20260506104137 | 64 | 218 | 0.9 | 0.9 | 0.00 | 0.00 | 0.00 | 79 | 1010.0 |
| 20260506103635 | 64 | 216 | 0.0 | 0.9 | 0.00 | 0.00 | 0.00 | 79 | 1010.1 |
| 20260506103131 | 64 | 226 | 0.0 | 0.0 | 0.00 | 0.00 | 0.00 | 79 | 1010.1 |
| 20260506102630 | 64 | 213 | 0.0 | 0.0 | 0.00 | 0.00 | 0.00 | 79 | 1010.1 |
| 20260506102127 | 64 | 232 | 0.0 | 0.0 | 0.00 | 0.00 | 0.00 | 79 | 1010.1 |
| 20260506101623 | 64 | 196 | 1.7 | 1.7 | 0.00 | 0.00 | 0.00 | 79 | 1010.1 |
| 20260506101120 | 64 | 224 | 0.0 | 0.0 | 0.00 | 0.00 | 0.00 | 80 | 1010.0 |
| 20260506100619 | 64 | 192 | 0.0 | 0.0 | 0.00 | 0.00 | 0.00 | 80 | 1010.0 |
| 20260506100116 | 64 | 236 | 0.0 | 0.0 | 0.00 | 0.00 | 0.00 | 80 | 1009.9 |
| 20260506095615 | 64 | 209 | 0.0 | 0.0 | 0.00 | 0.00 | 0.00 | 80 | 1010.0 |
| 20260506095111 | 64 | 212 | 0.9 | 0.9 | 0.00 | 0.00 | 0.00 | 80 | 1009.9 |
| 20260506094609 | 64 | 217 | 0.0 | 0.0 | 0.00 | 0.00 | 0.00 | 80 | 1009.9 |
| 20260506094106 | 64 | 216 | 0.0 | 0.0 | 0.00 | 0.00 | 0.00 | 80 | 1009.7 |
| 20260506093604 | 64 | 190 | 4.3 | 5.2 | 0.00 | 0.00 | 0.00 | 80 | 1009.8 |
| 20260506093101 | 64 | 216 | 2.6 | 2.6 | 0.00 | 0.00 | 0.00 | 81 | 1009.7 |
| 20260506092559 | 64 | 203 | 0.9 | 0.9 | 0.00 | 0.00 | 0.00 | 81 | 1009.9 |
| 20260506092056 | 63 | 165 | 0.9 | 1.7 | 0.00 | 0.00 | 0.00 | 82 | 1010.0 |
| 20260506091554 | 63 | 223 | 0.0 | 0.9 | 0.00 | 0.00 | 0.00 | 82 | 1009.9 |
| 20260506091051 | 63 | 221 | 0.0 | 0.0 | 0.00 | 0.00 | 0.00 | 82 | 1009.9 |
| 20260506090549 | 63 | 216 | 0.0 | 0.0 | 0.00 | 0.00 | 0.00 | 82 | 1010.3 |
| 20260506090045 | 63 | 235 | 0.0 | 0.0 | 0.00 | 0.00 | 0.00 | 81 | 1010.0 |
| 20260506085542 | 64 | 230 | 0.0 | 0.0 | 0.00 | 0.00 | 0.00 | 81 | 1009.9 |
| 20260506085038 | 63 | 206 | 0.0 | 0.9 | 0.00 | 0.00 | 0.00 | 81 | 1010.0 |
| 20260506084536 | 63 | 211 | 0.9 | 0.9 | 0.00 | 0.00 | 0.00 | 81 | 1010.2 |
| 20260506084031 | 63 | 221 | 0.0 | 0.0 | 0.00 | 0.00 | 0.00 | 81 | 1010.0 |
| 20260506083529 | 64 | 221 | 0.0 | 0.0 | 0.00 | 0.00 | 0.00 | 80 | 1010.1 |
| 20260506083026 | 64 | 208 | 0.0 | 0.0 | 0.00 | 0.00 | 0.00 | 80 | 1010.1 |
| 20260506082523 | 64 | 205 | 0.0 | 0.0 | 0.00 | 0.00 | 0.00 | 80 | 1010.0 |
| 20260506082019 | 64 | 215 | 0.0 | 0.9 | 0.00 | 0.00 | 0.00 | 79 | 1009.8 |
| 20260506081517 | 64 | 212 | 0.0 | 0.9 | 0.00 | 0.00 | 0.00 | 79 | 1010.2 |
| 20260506081014 | 64 | 213 | 2.6 | 4.3 | 0.00 | 0.00 | 0.00 | 79 | 1010.2 |
| 20260506080511 | 64 | 179 | 0.9 | 1.7 | 0.00 | 0.00 | 0.00 | 79 | 1010.3 |
| 20260506073455 | 64 | 224 | 0.0 | 0.0 | 0.00 | 0.00 | 0.00 | 78 | 1010.1 |
| 20260506072952 | 64 | 225 | 0.0 | 0.0 | 0.00 | 0.00 | 0.00 | 78 | 1010.1 |
| 20260506072449 | 64 | 225 | 0.0 | 0.0 | 0.00 | 0.00 | 0.00 | 77 | 1010.3 |
| 20260506071947 | 64 | 242 | 0.0 | 0.0 | 0.00 | 0.00 | 0.00 | 77 | 1010.3 |
| 20260506071445 | 64 | 219 | 0.9 | 0.9 | 0.00 | 0.00 | 0.00 | 77 | 1010.1 |
| 20260506070941 | 64 | 178 | 0.9 | 1.7 | 0.00 | 0.00 | 0.00 | 77 | 1010.2 |
| 20260506070438 | 64 | 211 | 0.0 | 0.0 | 0.00 | 0.00 | 0.00 | 77 | 1010.3 |
| 20260506062416 | 65 | 187 | 0.9 | 0.9 | 0.00 | 0.00 | 0.00 | 74 | 1010.8 |
| 20260506061912 | 65 | 199 | 0.0 | 0.0 | 0.00 | 0.00 | 0.00 | 74 | 1010.6 |
| 20260506061408 | 65 | 195 | 0.9 | 0.9 | 0.00 | 0.00 | 0.00 | 74 | 1010.8 |
| 20260506060906 | 64 | 215 | 0.0 | 0.0 | 0.00 | 0.00 | 0.00 | 75 | 1010.7 |
| 20260506060404 | 64 | 223 | 0.0 | 0.0 | 0.00 | 0.00 | 0.00 | 74 | 1010.5 |
| 20260506051336 | 67 | 238 | 0.0 | 0.0 | 0.00 | 0.00 | 0.00 | 69 | 1011.0 |
| 20260506050834 | 67 | 185 | 0.9 | 0.9 | 0.00 | 0.00 | 0.00 | 68 | 1011.3 |
| 20260506050331 | 67 | 215 | 0.0 | 0.0 | 0.00 | 0.00 | 0.00 | 69 | 1011.2 |
| 20260506044821 | 67 | 216 | 1.7 | 1.7 | 0.00 | 0.00 | 0.00 | 67 | 1011.0 |
| 20260506044319 | 67 | 203 | 0.9 | 0.9 | 0.00 | 0.00 | 0.00 | 67 | 1011.0 |
| 20260506043816 | 68 | 192 | 0.0 | 0.0 | 0.00 | 0.00 | 0.00 | 66 | 1010.9 |
| 20260506043313 | 68 | 209 | 0.0 | 0.0 | 0.00 | 0.00 | 0.00 | 66 | 1010.9 |
| 20260506042812 | 68 | 211 | 0.0 | 0.9 | 0.00 | 0.00 | 0.00 | 65 | 1011.0 |
| 20260506042311 | 68 | 203 | 0.0 | 0.0 | 0.00 | 0.00 | 0.00 | 65 | 1011.2 |
| 20260506041809 | 68 | 195 | 2.6 | 4.3 | 0.00 | 0.00 | 0.00 | 64 | 1010.8 |
| 20260506041305 | 69 | 188 | 0.9 | 1.7 | 0.00 | 0.00 | 0.00 | 64 | 1011.2 |
| 20260506040803 | 69 | 211 | 2.6 | 4.3 | 0.00 | 0.00 | 0.00 | 64 | 1011.1 |
| 20260506040259 | 69 | 201 | 0.9 | 1.7 | 0.00 | 0.00 | 0.00 | 63 | 1010.9 |
| 20260506035756 | 68 | 212 | 1.7 | 2.6 | 0.00 | 0.00 | 0.00 | 64 | 1011.0 |
| 20260506035253 | 69 | 220 | 0.0 | 0.9 | 0.00 | 0.00 | 0.00 | 63 | 1011.3 |
| 20260506034750 | 69 | 226 | 2.6 | 2.6 | 0.00 | 0.00 | 0.00 | 62 | 1010.9 |
| 20260506034248 | 69 | 222 | 0.0 | 0.0 | 0.00 | 0.00 | 0.00 | 63 | 1010.8 |
| 20260506033744 | 69 | 203 | 0.0 | 0.0 | 0.00 | 0.00 | 0.00 | 63 | 1010.9 |
| 20260506033241 | 69 | 216 | 0.0 | 0.0 | 0.00 | 0.00 | 0.00 | 62 | 1010.8 |
| 20260506032738 | 69 | 219 | 0.0 | 0.9 | 0.00 | 0.00 | 0.00 | 63 | 1010.9 |
| 20260506032235 | 69 | 189 | 2.6 | 2.6 | 0.00 | 0.00 | 0.00 | 62 | 1010.9 |
| 20260506031732 | 69 | 190 | 3.5 | 4.3 | 0.00 | 0.00 | 0.00 | 61 | 1011.0 |
| 20260506031230 | 69 | 207 | 1.7 | 1.7 | 0.00 | 0.00 | 0.00 | 62 | 1010.8 |
| 20260506030728 | 69 | 180 | 0.0 | 0.0 | 0.00 | 0.00 | 0.00 | 62 | 1010.9 |
| 20260506030225 | 70 | 193 | 1.7 | 4.3 | 0.00 | 0.00 | 0.00 | 61 | 1010.9 |
| 20260506025721 | 69 | 212 | 2.6 | 4.3 | 0.00 | 0.00 | 0.00 | 61 | 1010.9 |
| 20260506025218 | 70 | 221 | 0.9 | 1.7 | 0.00 | 0.00 | 0.00 | 61 | 1010.7 |
| 20260506024715 | 70 | 228 | 0.9 | 0.9 | 0.00 | 0.00 | 0.00 | 60 | 1011.1 |
| 20260506024211 | 70 | 208 | 0.9 | 0.9 | 0.00 | 0.00 | 0.00 | 60 | 1011.2 |
| 20260506023708 | 70 | 230 | 0.9 | 0.9 | 0.00 | 0.00 | 0.00 | 60 | 1010.9 |
| 20260506023205 | 71 | 213 | 1.7 | 1.7 | 0.00 | 0.00 | 0.00 | 60 | 1011.0 |
| 20260506022702 | 71 | 225 | 2.6 | 4.3 | 0.00 | 0.00 | 0.00 | 59 | 1010.9 |
| 20260506022159 | 71 | 218 | 0.0 | 0.0 | 0.00 | 0.00 | 0.00 | 59 | 1010.8 |
| 20260506021657 | 71 | 163 | 1.7 | 5.2 | 0.00 | 0.00 | 0.00 | 59 | 1011.0 |
| 20260506021154 | 71 | 227 | 2.6 | 2.6 | 0.00 | 0.00 | 0.00 | 58 | 1010.8 |
| 20260506020651 | 72 | 227 | 1.7 | 2.6 | 0.00 | 0.00 | 0.00 | 57 | 1010.9 |
| 20260506020149 | 72 | 202 | 2.6 | 4.3 | 0.00 | 0.00 | 0.00 | 56 | 1010.7 |
| 20260506015646 | 72 | 234 | 1.7 | 2.6 | 0.00 | 0.00 | 0.00 | 56 | 1010.7 |
| 20260506015143 | 72 | 223 | 0.0 | 0.0 | 0.00 | 0.00 | 0.00 | 56 | 1010.7 |
| 20260506014641 | 72 | 209 | 1.7 | 1.7 | 0.00 | 0.00 | 0.00 | 55 | 1010.6 |
| 20260506014136 | 73 | 237 | 4.3 | 9.6 | 0.00 | 0.00 | 0.00 | 54 | 1010.6 |
| 20260506013635 | 73 | 225 | 0.9 | 1.7 | 0.00 | 0.00 | 0.00 | 52 | 1010.4 |
| 20260506013131 | 73 | 210 | 0.9 | 1.7 | 0.00 | 0.00 | 0.00 | 51 | 1010.4 |
| 20260506012627 | 74 | 210 | 1.7 | 1.7 | 0.00 | 0.00 | 0.00 | 49 | 1010.4 |
| 20260506012124 | 74 | 216 | 2.6 | 2.6 | 0.00 | 0.00 | 0.00 | 48 | 1010.3 |
| 20260506011621 | 74 | 255 | 4.3 | 6.1 | 0.00 | 0.00 | 0.00 | 47 | 1010.2 |
| 20260506011112 | 74 | 211 | 0.9 | 1.7 | 0.00 | 0.00 | 0.00 | 47 | 1010.0 |
| 20260506010606 | 75 | 178 | 4.3 | 6.1 | 0.00 | 0.00 | 0.00 | 46 | 1010.2 |
| 20260506005559 | 75 | 228 | 0.9 | 0.9 | 0.00 | 0.00 | 0.00 | 46 | 1009.9 |
| 20260506005055 | 75 | 234 | 1.7 | 2.6 | 0.00 | 0.00 | 0.00 | 45 | 1009.8 |
| 20260506004552 | 75 | 212 | 3.5 | 5.2 | 0.00 | 0.00 | 0.00 | 44 | 1009.7 |
| 20260506004049 | 75 | 244 | 3.5 | 5.2 | 0.00 | 0.00 | 0.00 | 45 | 1009.7 |
| 20260506003545 | 76 | 209 | 0.9 | 0.9 | 0.00 | 0.00 | 0.00 | 45 | 1009.6 |
| 20260506003042 | 76 | 206 | 0.9 | 0.9 | 0.00 | 0.00 | 0.00 | 44 | 1009.6 |
| 20260506002537 | 76 | 219 | 3.5 | 4.3 | 0.00 | 0.00 | 0.00 | 44 | 1009.6 |
| 20260506002034 | 76 | 158 | 2.6 | 4.3 | 0.00 | 0.00 | 0.00 | 44 | 1009.3 |
| 20260506001530 | 76 | 199 | 0.0 | 0.0 | 0.00 | 0.00 | 0.00 | 45 | 1009.5 |
| 20260506001027 | 77 | 200 | 1.7 | 2.6 | 0.00 | 0.00 | 0.00 | 43 | 1009.6 |
| 20260506000525 | 77 | 234 | 4.3 | 6.1 | 0.00 | 0.00 | 0.00 | 43 | 1009.4 |
| 20260506000022 | 77 | 177 | 0.9 | 1.7 | 0.00 | 0.00 | 0.00 | 43 | 1009.3 |
| 20260505235520 | 77 | 142 | 2.6 | 2.6 | 0.00 | 0.00 | 0.00 | 42 | 1009.4 |
| 20260505235016 | 77 | 218 | 0.9 | 1.7 | 0.00 | 0.00 | 0.00 | 41 | 1009.4 |
| 20260505234514 | 78 | 120 | 2.6 | 2.6 | 0.00 | 0.00 | 0.00 | 39 | 1009.4 |
| 20260505234010 | 78 | 213 | 1.7 | 1.7 | 0.00 | 0.00 | 0.00 | 39 | 1009.1 |
| 20260505233508 | 78 | 230 | 0.0 | 0.0 | 0.00 | 0.00 | 0.00 | 39 | 1009.2 |
| 20260505233005 | 78 | 220 | 7.8 | 11.3 | 0.00 | 0.00 | 0.00 | 38 | 1009.1 |
| 20260505232503 | 78 | 238 | 2.6 | 4.3 | 0.00 | 0.00 | 0.00 | 38 | 1009.2 |
| 20260505232000 | 79 | 226 | 2.6 | 2.6 | 0.00 | 0.00 | 0.00 | 38 | 1009.1 |
| 20260505231457 | 79 | 238 | 3.5 | 6.1 | 0.00 | 0.00 | 0.00 | 37 | 1009.0 |
| 20260505230955 | 80 | 221 | 4.3 | 6.1 | 0.00 | 0.00 | 0.00 | 36 | 1008.8 |
| 20260505230453 | 80 | 218 | 4.3 | 6.1 | 0.00 | 0.00 | 0.00 | 35 | 1008.8 |
| 20260505225949 | 80 | 221 | 0.9 | 1.7 | 0.00 | 0.00 | 0.00 | 34 | 1008.6 |
| 20260505225446 | 80 | 187 | 5.2 | 6.1 | 0.00 | 0.00 | 0.00 | 34 | 1008.8 |
| 20260505224942 | 80 | 239 | 1.7 | 2.6 | 0.00 | 0.00 | 0.00 | 35 | 1008.7 |
| 20260505224439 | 80 | 243 | 7.8 | 11.3 | 0.00 | 0.00 | 0.00 | 34 | 1008.7 |
| 20260505223936 | 80 | 294 | 2.6 | 4.3 | 0.00 | 0.00 | 0.00 | 35 | 1008.7 |
| 20260505223433 | 80 | 235 | 6.1 | 7.0 | 0.00 | 0.00 | 0.00 | 34 | 1008.5 |
| 20260505222929 | 80 | 207 | 2.6 | 4.3 | 0.00 | 0.00 | 0.00 | 35 | 1008.7 |
| 20260505222426 | 80 | 235 | 1.7 | 2.6 | 0.00 | 0.00 | 0.00 | 35 | 1008.6 |
| 20260505221922 | 81 | 247 | 1.7 | 1.7 | 0.00 | 0.00 | 0.00 | 34 | 1008.8 |
| 20260505221419 | 80 | 155 | 3.5 | 4.3 | 0.00 | 0.00 | 0.00 | 33 | 1008.7 |
| 20260505220916 | 81 | 293 | 5.2 | 7.0 | 0.00 | 0.00 | 0.00 | 33 | 1008.8 |
| 20260505220413 | 81 | 245 | 7.8 | 12.2 | 0.00 | 0.00 | 0.00 | 32 | 1008.5 |
| 20260505215911 | 82 | 237 | 7.8 | 11.3 | 0.00 | 0.00 | 0.00 | 32 | 1008.5 |
| 20260505215409 | 81 | 242 | 4.3 | 6.1 | 0.00 | 0.00 | 0.00 | 31 | 1008.5 |
| 20260505214906 | 81 | 215 | 2.6 | 2.6 | 0.00 | 0.00 | 0.00 | 32 | 1008.3 |
| 20260505214404 | 81 | 243 | 7.0 | 13.9 | 0.00 | 0.00 | 0.00 | 30 | 1008.4 |
| 20260505213901 | 81 | 232 | 5.2 | 6.1 | 0.00 | 0.00 | 0.00 | 30 | 1008.6 |
| 20260505213359 | 81 | 252 | 7.8 | 12.2 | 0.00 | 0.00 | 0.00 | 29 | 1008.5 |
| 20260505212854 | 82 | 240 | 6.1 | 7.8 | 0.00 | 0.00 | 0.00 | 30 | 1008.0 |
| 20260505212352 | 83 | 257 | 5.2 | 7.0 | 0.00 | 0.00 | 0.00 | 30 | 1008.1 |
| 20260505211848 | 83 | 188 | 3.5 | 4.3 | 0.00 | 0.00 | 0.00 | 31 | 1008.2 |
| 20260505211346 | 83 | 254 | 5.2 | 7.8 | 0.00 | 0.00 | 0.00 | 30 | 1008.1 |
| 20260505210842 | 83 | 158 | 2.6 | 2.6 | 0.00 | 0.00 | 0.00 | 30 | 1008.1 |
| 20260505210339 | 83 | 232 | 5.2 | 7.0 | 0.00 | 0.00 | 0.00 | 31 | 1008.0 |
| 20260505205835 | 83 | 242 | 7.8 | 12.2 | 0.00 | 0.00 | 0.00 | 31 | 1007.9 |
| 20260505205334 | 83 | 235 | 6.1 | 7.8 | 0.00 | 0.00 | 0.00 | 31 | 1008.0 |
| 20260505204830 | 83 | 243 | 12.2 | 15.6 | 0.00 | 0.00 | 0.00 | 31 | 1008.4 |
| 20260505204328 | 83 | 222 | 13.9 | 15.6 | 0.00 | 0.00 | 0.00 | 31 | 1008.3 |
| 20260505203826 | 83 | 274 | 12.2 | 17.4 | 0.00 | 0.00 | 0.00 | 32 | 1008.1 |
| 20260505203322 | 83 | 244 | 0.9 | 2.6 | 0.00 | 0.00 | 0.00 | 34 | 1008.3 |
| 20260505202818 | 83 | 108 | 7.0 | 8.7 | 0.00 | 0.00 | 0.00 | 32 | 1008.2 |
| 20260505202314 | 84 | 292 | 6.1 | 8.7 | 0.00 | 0.00 | 0.00 | 32 | 1008.1 |
| 20260505201811 | 83 | 195 | 5.2 | 6.1 | 0.00 | 0.00 | 0.00 | 32 | 1008.2 |
| 20260505201309 | 83 | 236 | 5.2 | 8.7 | 0.00 | 0.00 | 0.00 | 33 | 1008.1 |
| 20260505200807 | 83 | 259 | 2.6 | 4.3 | 0.00 | 0.00 | 0.00 | 33 | 1008.1 |
| 20260505200304 | 83 | 216 | 7.0 | 11.3 | 0.00 | 0.00 | 0.00 | 33 | 1008.1 |
| 20260505195758 | 83 | 258 | 4.3 | 6.1 | 0.00 | 0.00 | 0.00 | 33 | 1008.4 |
| 20260505195257 | 83 | 247 | 9.6 | 14.8 | 0.00 | 0.00 | 0.00 | 33 | 1008.4 |
| 20260505194753 | 82 | 257 | 10.4 | 13.9 | 0.00 | 0.00 | 0.00 | 34 | 1008.5 |
| 20260505194250 | 82 | 231 | 7.8 | 9.6 | 0.00 | 0.00 | 0.00 | 35 | 1008.5 |
| 20260505193745 | 82 | 266 | 6.1 | 7.8 | 0.00 | 0.00 | 0.00 | 36 | 1008.5 |
| 20260505193244 | 83 | 218 | 2.6 | 2.6 | 0.00 | 0.00 | 0.00 | 35 | 1008.5 |
| 20260505192742 | 83 | 154 | 7.8 | 11.3 | 0.00 | 0.00 | 0.00 | 35 | 1008.6 |
| 20260505192239 | 83 | 181 | 3.5 | 5.2 | 0.00 | 0.00 | 0.00 | 36 | 1008.6 |
| 20260505191737 | 82 | 266 | 3.5 | 6.1 | 0.00 | 0.00 | 0.00 | 37 | 1008.9 |
| 20260505191235 | 82 | 248 | 2.6 | 4.3 | 0.00 | 0.00 | 0.00 | 37 | 1009.0 |
| 20260505190731 | 83 | 228 | 4.3 | 6.1 | 0.00 | 0.00 | 0.00 | 36 | 1009.0 |
| 20260505190231 | 82 | 140 | 5.2 | 7.0 | 0.00 | 0.00 | 0.00 | 37 | 1008.9 |
| 20260505185728 | 82 | 254 | 6.1 | 7.8 | 0.00 | 0.00 | 0.00 | 37 | 1009.0 |
| 20260505185225 | 83 | 192 | 7.0 | 8.7 | 0.00 | 0.00 | 0.00 | 36 | 1009.1 |
| 20260505184720 | 83 | 193 | 4.3 | 6.1 | 0.00 | 0.00 | 0.00 | 34 | 1009.0 |
| 20260505184218 | 83 | 218 | 6.1 | 9.6 | 0.00 | 0.00 | 0.00 | 36 | 1009.2 |
| 20260505183715 | 83 | 225 | 3.5 | 5.2 | 0.00 | 0.00 | 0.00 | 38 | 1009.1 |
| 20260505183212 | 82 | 236 | 2.6 | 4.3 | 0.00 | 0.00 | 0.00 | 37 | 1009.4 |